LiveATC.Net - Listen to live air traffic control over the Internet!


ICAO: MMAN  IATA: NTR   Airport: Aeropuerto Internacional del Norte
City: Monterrey
Country: Mexico   Continent: North America
MMAN METAR Weather: MMAN 251540Z 21002KT 6SM BKN015 26/19 A2980 RMK 8/500 HZY
MMAN Flight Activity (FlightAware)

MMAN Tower
Feed Status: DOWN
Last heard on: 2020-02-14 03:08:22 (101 days 13 hours 40 minutes ago)
Archive Access: MMAN Tower
FacilityFrequency
Monterrey Tower118.600

NOTICE

Unauthorized use prohibited. See LiveATC.net Terms of Service


Airport/ARTCC Code
Frequency Search
(e.g., 124.400, 128.75)
Site-wide search
 


Browse Feeds
Top 50 Feeds
Coverage Map
Bad Weather Areas

LiveATC FAQ
Offer LiveATC feed
Contact LiveATC.net
Press Inquiries

LiveATC on iPhone
LiveATC on Android

Windows Phone
Windows 8/10

LiveATC Mobile
(Mobile browser)

ATC Audio Archives
Interesting Recordings

LiveATC Forums


Home Page
About LiveATC.net
Make a Donation
Terms of Use
Privacy Policy

Canadian Air Freqs

AIRMETs/SIGMETs

FAA Airport Status
Nat'l Airspace Status
Arrival Demand Charts


Server Software By:
Icecast.org
Liquidsoap